Location: Hastringsfeld
(50.9620°N, 10.4787°E)
Time: 20:33:06
(UTC+00:00)

IRS-1C - Pass Details

Date: 26 September 2023
Orbit: 814 x 816 km, 99.0° (Epoch: 10 December)

Event Time Altitude Azimuth Distance (km) Brightness Sun altitude
Rises 03:59:51 0° 16° (NNE) 3,358 7.7 -11.8°
Reaches altitude 10° 04:02:13 10° 17° (NNE) 2,421 7.0 -11.4°
Maximum altitude 04:07:35 80° 105° (ESE) 835 4.3 -10.6°
Drops below altitude 10° 04:12:55 10° 193° (SSW) 2,404 6.3 -9.8°
Sets 04:15:15 0° 194° (SSW) 3,331 7.1 -9.4°
